| time (UTC) | temp F | wind direction | speed MPH | gust MPH | rain 1hr in | rain 24hr in | rain mn in | humidity % | barometer mb |
| 20260903015524 | 77 | 0 | 0.0 | 3.0 | 0.03 | 0.04 | 0.04 | 95 | 1014.9 |
| 20260903015023 | 77 | 0 | 1.0 | 3.0 | 0.03 | 0.04 | 0.04 | 94 | 1014.7 |
| 20260903014544 | 77 | 0 | 0.0 | 3.0 | 0.03 | 0.04 | 0.04 | 94 | 1014.7 |
| 20260903014020 | 77 | 0 | 1.0 | 5.0 | 0.03 | 0.04 | 0.04 | 94 | 1014.6 |
| 20260903013523 | 78 | 82 | 2.0 | 5.0 | 0.02 | 0.03 | 0.03 | 94 | 1014.5 |
| 20260903013041 | 78 | 48 | 1.0 | 5.0 | 0.02 | 0.03 | 0.03 | 94 | 1014.4 |
| 20260903012526 | 78 | 68 | 2.0 | 5.0 | 0.02 | 0.03 | 0.03 | 94 | 1014.2 |
| 20260903012027 | 78 | 36 | 2.0 | 6.0 | 0.02 | 0.03 | 0.03 | 94 | 1014.1 |
| 20260903011542 | 78 | 48 | 2.0 | 8.0 | 0.01 | 0.02 | 0.02 | 94 | 1014.1 |
| 20260903011024 | 78 | 65 | 3.0 | 8.0 | 0.01 | 0.02 | 0.02 | 94 | 1014.1 |
| 20260903010523 | 78 | 44 | 2.0 | 6.0 | 0.00 | 0.01 | 0.01 | 94 | 1014.0 |
| 20260903010045 | 78 | 12 | 1.0 | 8.0 | 0.00 | 0.01 | 0.01 | 94 | 1014.0 |
| 20260903005522 | 79 | 53 | 3.0 | 8.0 | 0.00 | 0.03 | 0.01 | 94 | 1014.0 |
| 20260903005022 | 79 | 51 | 4.0 | 8.0 | 0.00 | 0.03 | 0.01 | 94 | 1014.1 |
| 20260903004542 | 79 | 58 | 2.0 | 7.0 | 0.00 | 0.03 | 0.01 | 94 | 1014.0 |
| 20260903004023 | 79 | 48 | 3.0 | 8.0 | 0.00 | 0.03 | 0.01 | 94 | 1013.9 |
| 20260903003518 | 79 | 48 | 3.0 | 8.0 | 0.00 | 0.03 | 0.01 | 94 | 1013.9 |
| 20260903003044 | 79 | 65 | 3.0 | 8.0 | 0.00 | 0.03 | 0.01 | 94 | 1014.0 |
| 20260903002523 | 79 | 47 | 3.0 | 6.0 | 0.00 | 0.03 | 0.01 | 94 | 1014.0 |
| 20260903002026 | 79 | 56 | 2.0 | 7.0 | 0.00 | 0.03 | 0.01 | 94 | 1013.9 |
| 20260903001554 | 79 | 61 | 3.0 | 8.0 | 0.00 | 0.03 | 0.01 | 93 | 1013.9 |
| 20260903001020 | 79 | 31 | 3.0 | 8.0 | 0.00 | 0.03 | 0.01 | 93 | 1013.9 |
| 20260903000523 | 79 | 36 | 3.0 | 6.0 | 0.00 | 0.03 | 0.01 | 93 | 1013.9 |
| 20260903000045 | 79 | 50 | 2.0 | 6.0 | 0.00 | 0.03 | 0.01 | 93 | 1013.9 |
| 20260902235522 | 79 | 52 | 2.0 | 6.0 | 0.00 | 0.04 | 0.01 | 93 | 1013.7 |
| 20260902235021 | 79 | 28 | 2.0 | 10.0 | 0.00 | 0.04 | 0.01 | 92 | 1013.7 |
| 20260902234543 | 79 | 0 | 4.0 | 10.0 | 0.00 | 0.04 | 0.01 | 92 | 1013.8 |
| 20260902234027 | 79 | 30 | 2.0 | 6.0 | 0.00 | 0.04 | 0.01 | 92 | 1013.8 |
| 20260902233521 | 80 | 74 | 2.0 | 6.0 | 0.00 | 0.04 | 0.01 | 92 | 1013.8 |
| 20260902233043 | 80 | 26 | 0.0 | 4.0 | 0.00 | 0.04 | 0.01 | 92 | 1013.8 |
| 20260902232525 | 80 | 0 | 0.0 | 4.0 | 0.00 | 0.04 | 0.01 | 92 | 1013.6 |
| 20260902232023 | 80 | 41 | 1.0 | 4.0 | 0.00 | 0.04 | 0.01 | 91 | 1013.7 |
| 20260902231546 | 80 | 61 | 1.0 | 4.0 | 0.00 | 0.04 | 0.01 | 91 | 1013.8 |
| 20260902231021 | 81 | 0 | 1.0 | 4.0 | 0.00 | 0.04 | 0.01 | 90 | 1013.9 |
| 20260902230518 | 81 | 38 | 0.0 | 6.0 | 0.00 | 0.04 | 0.01 | 90 | 1013.8 |
| 20260902230042 | 81 | 18 | 2.0 | 6.0 | 0.00 | 0.04 | 0.01 | 90 | 1013.7 |
| 20260902225520 | 81 | 57 | 2.0 | 6.0 | 0.00 | 0.18 | 0.01 | 90 | 1013.7 |
| 20260902225028 | 81 | 38 | 2.0 | 5.0 | 0.00 | 0.18 | 0.01 | 90 | 1013.5 |
| 20260902224540 | 81 | 52 | 2.0 | 5.0 | 0.00 | 0.18 | 0.01 | 90 | 1013.6 |
| 20260902224023 | 81 | 37 | 1.0 | 4.0 | 0.00 | 0.18 | 0.01 | 90 | 1013.6 |
| 20260902223524 | 81 | 41 | 1.0 | 4.0 | 0.00 | 0.18 | 0.01 | 90 | 1013.5 |
| 20260902223045 | 81 | 50 | 1.0 | 5.0 | 0.00 | 0.18 | 0.01 | 90 | 1013.6 |
| 20260902222518 | 81 | 32 | 1.0 | 5.0 | 0.00 | 0.18 | 0.01 | 90 | 1013.6 |
| 20260902222022 | 80 | 46 | 0.0 | 0.0 | 0.00 | 0.18 | 0.01 | 91 | 1013.6 |
| 20260902221605 | 80 | 0 | 0.0 | 3.0 | 0.00 | 0.18 | 0.01 | 90 | 1013.5 |
| 20260902221025 | 81 | 0 | 0.0 | 5.0 | 0.00 | 0.18 | 0.01 | 90 | 1013.4 |
| 20260902220524 | 81 | 71 | 0.0 | 6.0 | 0.00 | 0.18 | 0.01 | 89 | 1013.1 |
| 20260902220042 | 81 | 71 | 2.0 | 6.0 | 0.00 | 0.18 | 0.01 | 89 | 1013.0 |
| 20260902215526 | 80 | 56 | 2.0 | 6.0 | 0.00 | 0.18 | 0.01 | 90 | 1013.1 |
| 20260902215024 | 80 | 16 | 2.0 | 6.0 | 0.00 | 0.18 | 0.01 | 90 | 1013.3 |
| 20260902214541 | 80 | 0 | 0.0 | 5.0 | 0.00 | 0.18 | 0.01 | 91 | 1013.2 |
| 20260902214019 | 80 | 42 | 2.0 | 5.0 | 0.00 | 0.18 | 0.01 | 90 | 1013.1 |
| 20260902213518 | 80 | 70 | 3.0 | 8.0 | 0.00 | 0.18 | 0.01 | 89 | 1013.2 |
| 20260902213041 | 81 | 101 | 3.0 | 11.0 | 0.00 | 0.18 | 0.01 | 87 | 1013.3 |
| 20260902212520 | 82 | 59 | 6.0 | 11.0 | 0.00 | 0.18 | 0.01 | 84 | 1013.4 |
| 20260902212025 | 83 | 59 | 5.0 | 12.0 | 0.00 | 0.18 | 0.01 | 82 | 1013.4 |
| 20260902211544 | 83 | 52 | 5.0 | 15.0 | 0.00 | 0.18 | 0.01 | 82 | 1013.1 |
| 20260902211023 | 83 | 56 | 7.0 | 15.0 | 0.00 | 0.18 | 0.01 | 81 | 1013.1 |
| 20260902210523 | 84 | 34 | 9.0 | 15.0 | 0.00 | 0.18 | 0.01 | 81 | 1013.3 |
| 20260902210042 | 84 | 61 | 7.0 | 17.0 | 0.00 | 0.18 | 0.01 | 82 | 1013.4 |
| 20260902205522 | 85 | 53 | 8.0 | 17.0 | 0.00 | 0.18 | 0.01 | 82 | 1013.4 |
| 20260902205020 | 85 | 76 | 6.0 | 16.0 | 0.00 | 0.18 | 0.01 | 82 | 1013.1 |
| 20260902204600 | 86 | 52 | 9.0 | 16.0 | 0.00 | 0.18 | 0.01 | 80 | 1013.2 |
| 20260902204023 | 87 | 90 | 6.0 | 16.0 | 0.00 | 0.18 | 0.01 | 77 | 1013.1 |
| 20260902203520 | 87 | 65 | 4.0 | 11.0 | 0.00 | 0.18 | 0.01 | 79 | 1013.2 |
| 20260902203050 | 87 | 36 | 3.0 | 12.0 | 0.00 | 0.18 | 0.01 | 80 | 1013.1 |
| 20260902202520 | 86 | 82 | 4.0 | 12.0 | 0.00 | 0.18 | 0.01 | 80 | 1013.0 |
| 20260902202024 | 86 | 268 | 2.0 | 11.0 | 0.00 | 0.18 | 0.01 | 80 | 1012.9 |
| 20260902201544 | 86 | 38 | 4.0 | 11.0 | 0.00 | 0.18 | 0.01 | 79 | 1012.9 |
| 20260902201029 | 87 | 55 | 6.0 | 12.0 | 0.00 | 0.18 | 0.01 | 77 | 1012.8 |
| 20260902200522 | 88 | 29 | 5.0 | 14.0 | 0.00 | 0.18 | 0.01 | 76 | 1013.0 |
| 20260902200041 | 89 | 24 | 4.0 | 14.0 | 0.00 | 0.18 | 0.01 | 78 | 1013.0 |
| 20260902195524 | 88 | 74 | 8.0 | 14.0 | 0.00 | 0.18 | 0.01 | 75 | 1013.2 |
| 20260902195024 | 89 | 44 | 5.0 | 14.0 | 0.00 | 0.18 | 0.01 | 76 | 1013.2 |
| 20260902194553 | 89 | 38 | 3.0 | 14.0 | 0.00 | 0.18 | 0.01 | 78 | 1013.3 |
| 20260902194020 | 88 | 17 | 3.0 | 11.0 | 0.00 | 0.18 | 0.01 | 75 | 1013.4 |
| 20260902193520 | 89 | 57 | 3.0 | 11.0 | 0.00 | 0.18 | 0.01 | 74 | 1013.6 |
| 20260902193045 | 89 | 49 | 5.0 | 11.0 | 0.00 | 0.18 | 0.01 | 73 | 1013.7 |
| 20260902192520 | 89 | 192 | 1.0 | 10.0 | 0.00 | 0.18 | 0.01 | 77 | 1013.6 |
| 20260902192018 | 88 | 49 | 5.0 | 10.0 | 0.00 | 0.18 | 0.01 | 72 | 1013.7 |
| 20260902191552 | 89 | 347 | 1.0 | 8.0 | 0.00 | 0.18 | 0.01 | 74 | 1013.7 |
| 20260902191021 | 89 | 54 | 4.0 | 8.0 | 0.00 | 0.18 | 0.01 | 73 | 1013.8 |
| 20260902190520 | 89 | 56 | 2.0 | 12.0 | 0.00 | 0.18 | 0.01 | 75 | 1013.8 |
| 20260902190042 | 88 | 49 | 4.0 | 13.0 | 0.00 | 0.18 | 0.01 | 73 | 1014.0 |
| 20260902185521 | 88 | 41 | 5.0 | 13.0 | 0.00 | 0.18 | 0.01 | 72 | 1014.1 |
| 20260902185023 | 89 | 28 | 6.0 | 13.0 | 0.00 | 0.18 | 0.01 | 73 | 1014.2 |
| 20260902184541 | 88 | 346 | 3.0 | 11.0 | 0.00 | 0.18 | 0.01 | 74 | 1014.4 |
| 20260902184023 | 88 | 44 | 4.0 | 14.0 | 0.00 | 0.18 | 0.01 | 74 | 1014.4 |
| 20260902183524 | 87 | 63 | 5.0 | 14.0 | 0.00 | 0.18 | 0.01 | 76 | 1014.5 |
| 20260902183116 | 88 | 25 | 5.0 | 14.0 | 0.00 | 0.18 | 0.01 | 76 | 1014.5 |
| 20260902182522 | 87 | 49 | 5.0 | 14.0 | 0.00 | 0.18 | 0.01 | 78 | 1014.4 |
| 20260902182025 | 86 | 134 | 4.0 | 13.0 | 0.00 | 0.18 | 0.01 | 80 | 1014.5 |
| 20260902181548 | 85 | 46 | 3.0 | 13.0 | 0.00 | 0.18 | 0.01 | 80 | 1014.5 |
| 20260902181024 | 86 | 40 | 7.0 | 13.0 | 0.00 | 0.18 | 0.01 | 77 | 1014.6 |
| 20260902180524 | 90 | 10 | 4.0 | 12.0 | 0.00 | 0.18 | 0.01 | 75 | 1014.5 |
| 20260902180044 | 90 | 22 | 1.0 | 9.0 | 0.00 | 0.18 | 0.01 | 74 | 1014.5 |
| 20260902175523 | 90 | 61 | 1.0 | 9.0 | 0.00 | 0.18 | 0.01 | 77 | 1014.6 |
| 20260902175022 | 89 | 37 | 3.0 | 9.0 | 0.00 | 0.18 | 0.01 | 73 | 1014.6 |
| 20260902174543 | 90 | 51 | 2.0 | 7.0 | 0.00 | 0.18 | 0.01 | 75 | 1014.6 |
| 20260902174028 | 90 | 54 | 1.0 | 5.0 | 0.00 | 0.18 | 0.01 | 76 | 1014.6 |
| 20260902173524 | 89 | 84 | 2.0 | 5.0 | 0.00 | 0.18 | 0.01 | 75 | 1014.6 |
| 20260902173055 | 89 | 82 | 1.0 | 6.0 | 0.00 | 0.18 | 0.01 | 76 | 1014.7 |
| 20260902172525 | 89 | 25 | 1.0 | 10.0 | 0.00 | 0.18 | 0.01 | 77 | 1014.9 |
| 20260902172025 | 89 | 342 | 3.0 | 10.0 | 0.00 | 0.18 | 0.01 | 78 | 1015.0 |
| 20260902171556 | 88 | 38 | 3.0 | 9.0 | 0.00 | 0.18 | 0.01 | 79 | 1015.2 |
| 20260902171022 | 87 | 93 | 1.0 | 5.0 | 0.00 | 0.18 | 0.01 | 78 | 1015.1 |
| 20260902170522 | 87 | 278 | 2.0 | 5.0 | 0.00 | 0.18 | 0.01 | 80 | 1015.2 |
| 20260902170045 | 86 | 38 | 2.0 | 5.0 | 0.00 | 0.18 | 0.01 | 78 | 1015.3 |
| 20260902165525 | 86 | 0 | 1.0 | 5.0 | 0.00 | 0.18 | 0.01 | 83 | 1015.3 |
| 20260902165025 | 86 | 188 | 1.0 | 5.0 | 0.00 | 0.18 | 0.01 | 82 | 1015.4 |
| 20260902164600 | 87 | 204 | 1.0 | 6.0 | 0.00 | 0.18 | 0.01 | 81 | 1015.5 |
| 20260902164024 | 88 | 0 | 1.0 | 11.0 | 0.00 | 0.18 | 0.01 | 81 | 1015.5 |
| 20260902163524 | 87 | 73 | 5.0 | 11.0 | 0.00 | 0.18 | 0.01 | 79 | 1015.5 |
| 20260902163046 | 87 | 5 | 1.0 | 10.0 | 0.00 | 0.18 | 0.01 | 81 | 1015.5 |
| 20260902162525 | 86 | 328 | 4.0 | 10.0 | 0.00 | 0.18 | 0.01 | 77 | 1015.5 |
| 20260902162026 | 86 | 46 | 1.0 | 11.0 | 0.00 | 0.18 | 0.01 | 82 | 1015.5 |
| 20260902161543 | 84 | 23 | 3.0 | 12.0 | 0.00 | 0.18 | 0.01 | 85 | 1015.6 |
| 20260902161026 | 83 | 49 | 6.0 | 12.0 | 0.00 | 0.18 | 0.01 | 83 | 1015.6 |
| 20260902160525 | 85 | 53 | 3.0 | 10.0 | 0.00 | 0.18 | 0.01 | 82 | 1015.7 |
| 20260902160053 | 86 | 313 | 1.0 | 5.0 | 0.00 | 0.18 | 0.01 | 80 | 1015.8 |
| 20260902155525 | 88 | 352 | 1.0 | 8.0 | 0.00 | 0.18 | 0.01 | 84 | 1015.8 |
| 20260902155026 | 87 | 277 | 2.0 | 8.0 | 0.00 | 0.18 | 0.01 | 80 | 1015.9 |
| 20260902154555 | 87 | 62 | 3.0 | 11.0 | 0.00 | 0.18 | 0.01 | 79 | 1016.0 |
| 20260902154028 | 86 | 96 | 4.0 | 11.0 | 0.00 | 0.18 | 0.01 | 80 | 1016.1 |
| 20260902153525 | 86 | 53 | 3.0 | 10.0 | 0.00 | 0.18 | 0.01 | 82 | 1016.1 |
| 20260902153044 | 84 | 22 | 2.0 | 6.0 | 0.00 | 0.18 | 0.01 | 84 | 1016.1 |
| 20260902152521 | 84 | 271 | 2.0 | 9.0 | 0.00 | 0.18 | 0.01 | 84 | 1016.2 |
| 20260902152020 | 86 | 350 | 3.0 | 10.0 | 0.00 | 0.18 | 0.01 | 82 | 1016.2 |
| 20260902151549 | 86 | 59 | 4.0 | 12.0 | 0.00 | 0.18 | 0.01 | 80 | 1016.2 |
| 20260902151022 | 86 | 85 | 5.0 | 14.0 | 0.00 | 0.18 | 0.01 | 82 | 1016.1 |
| 20260902150524 | 85 | 51 | 7.0 | 14.0 | 0.00 | 0.18 | 0.01 | 82 | 1016.2 |
| 20260902150048 | 85 | 45 | 4.0 | 9.0 | 0.00 | 0.18 | 0.01 | 83 | 1016.2 |
| 20260902145523 | 85 | 64 | 3.0 | 8.0 | 0.00 | 0.18 | 0.01 | 85 | 1016.2 |
| 20260902145030 | 85 | 26 | 3.0 | 7.0 | 0.00 | 0.18 | 0.01 | 83 | 1016.1 |
| 20260902144545 | 85 | 56 | 2.0 | 7.0 | 0.00 | 0.18 | 0.01 | 88 | 1016.1 |
| 20260902144024 | 84 | 12 | 2.0 | 9.0 | 0.00 | 0.18 | 0.01 | 88 | 1016.0 |
| 20260902143522 | 83 | 74 | 2.0 | 9.0 | 0.00 | 0.18 | 0.01 | 88 | 1016.0 |
| 20260902143040 | 83 | 55 | 1.0 | 9.0 | 0.00 | 0.18 | 0.01 | 89 | 1016.0 |
| 20260902142524 | 84 | 45 | 3.0 | 9.0 | 0.00 | 0.18 | 0.01 | 89 | 1016.0 |
| 20260902142025 | 84 | 67 | 3.0 | 6.0 | 0.00 | 0.18 | 0.01 | 90 | 1016.1 |
| 20260902141553 | 82 | 61 | 2.0 | 8.0 | 0.00 | 0.18 | 0.01 | 91 | 1016.0 |
| 20260902141024 | 82 | 17 | 1.0 | 8.0 | 0.00 | 0.18 | 0.01 | 91 | 1016.0 |
| 20260902140525 | 83 | 61 | 1.0 | 5.0 | 0.00 | 0.18 | 0.01 | 93 | 1016.0 |
| 20260902140043 | 82 | 33 | 1.0 | 9.0 | 0.00 | 0.18 | 0.01 | 94 | 1015.9 |
| 20260902135523 | 81 | 5 | 2.0 | 9.0 | 0.00 | 0.18 | 0.01 | 94 | 1015.9 |
| 20260902135020 | 81 | 13 | 2.0 | 7.0 | 0.00 | 0.18 | 0.01 | 95 | 1015.8 |
| 20260902134543 | 81 | 81 | 2.0 | 5.0 | 0.00 | 0.18 | 0.01 | 96 | 1015.9 |
| 20260902134022 | 80 | 61 | 2.0 | 8.0 | 0.00 | 0.18 | 0.01 | 96 | 1015.9 |
| 20260902133529 | 80 | 60 | 3.0 | 8.0 | 0.00 | 0.18 | 0.01 | 97 | 1015.8 |
| 20260902133049 | 80 | 42 | 3.0 | 8.0 | 0.00 | 0.18 | 0.01 | 97 | 1015.9 |
| 20260902132527 | 79 | 29 | 3.0 | 9.0 | 0.00 | 0.18 | 0.01 | 97 | 1015.9 |
| 20260902132024 | 79 | 38 | 4.0 | 9.0 | 0.00 | 0.18 | 0.01 | 97 | 1015.9 |
| 20260902131605 | 79 | 57 | 1.0 | 5.0 | 0.00 | 0.18 | 0.01 | 97 | 1015.9 |
| 20260902131023 | 79 | 351 | 1.0 | 4.0 | 0.00 | 0.18 | 0.01 | 97 | 1015.8 |
| 20260902130519 | 79 | 13 | 1.0 | 4.0 | 0.00 | 0.18 | 0.01 | 97 | 1015.9 |
| 20260902130052 | 80 | 0 | 0.0 | 5.0 | 0.00 | 0.18 | 0.01 | 97 | 1016.0 |
| 20260902125523 | 79 | 0 | 1.0 | 5.0 | 0.00 | 0.18 | 0.01 | 97 | 1016.0 |
| 20260902125023 | 79 | 31 | 1.0 | 5.0 | 0.00 | 0.18 | 0.01 | 97 | 1016.0 |
| 20260902124540 | 79 | 55 | 1.0 | 5.0 | 0.00 | 0.18 | 0.01 | 97 | 1016.0 |
| 20260902124024 | 79 | 0 | 0.0 | 4.0 | 0.00 | 0.18 | 0.01 | 97 | 1015.9 |
| 20260902123524 | 78 | 0 | 0.0 | 5.0 | 0.00 | 0.18 | 0.01 | 97 | 1016.0 |
| 20260902123048 | 78 | 0 | 1.0 | 5.0 | 0.00 | 0.18 | 0.01 | 97 | 1015.9 |
| 20260902122524 | 78 | 0 | 0.0 | 2.0 | 0.00 | 0.18 | 0.01 | 97 | 1015.9 |
| 20260902122020 | 77 | 0 | 0.0 | 2.0 | 0.00 | 0.18 | 0.01 | 97 | 1015.9 |
| 20260902121546 | 77 | 0 | 0.0 | 0.0 | 0.00 | 0.18 | 0.01 | 97 | 1015.9 |
| 20260902121026 | 77 | 0 | 0.0 | 0.0 | 0.00 | 0.18 | 0.01 | 97 | 1015.9 |
| 20260902120524 | 77 | 0 | 0.0 | 0.0 | 0.00 | 0.18 | 0.01 | 97 | 1015.8 |
| 20260902120049 | 77 | 0 | 0.0 | 0.0 | 0.00 | 0.18 | 0.01 | 97 | 1015.7 |
| 20260902115525 | 76 | 0 | 0.0 | 0.0 | 0.00 | 0.18 | 0.01 | 97 | 1015.7 |
| 20260902115025 | 76 | 0 | 0.0 | 0.0 | 0.00 | 0.18 | 0.01 | 97 | 1015.7 |
| 20260902114607 | 76 | 0 | 0.0 | 0.0 | 0.00 | 0.18 | 0.01 | 97 | 1015.6 |
| 20260902114022 | 76 | 0 | 0.0 | 0.0 | 0.00 | 0.18 | 0.01 | 97 | 1015.6 |
| 20260902113524 | 76 | 0 | 0.0 | 0.0 | 0.00 | 0.18 | 0.01 | 97 | 1015.7 |
| 20260902113042 | 76 | 0 | 0.0 | 0.0 | 0.00 | 0.18 | 0.01 | 97 | 1015.6 |
| 20260902112523 | 76 | 0 | 0.0 | 0.0 | 0.00 | 0.18 | 0.01 | 97 | 1015.5 |
| 20260902112023 | 75 | 0 | 0.0 | 0.0 | 0.00 | 0.18 | 0.01 | 97 | 1015.4 |
| 20260902111543 | 75 | 0 | 0.0 | 0.0 | 0.00 | 0.18 | 0.01 | 97 | 1015.4 |
| 20260902111024 | 75 | 0 | 0.0 | 0.0 | 0.00 | 0.18 | 0.01 | 97 | 1015.4 |
| 20260902110525 | 75 | 0 | 0.0 | 0.0 | 0.00 | 0.18 | 0.01 | 97 | 1015.3 |
| 20260902110100 | 74 | 0 | 0.0 | 0.0 | 0.00 | 0.18 | 0.01 | 97 | 1015.3 |
| 20260902105525 | 74 | 0 | 0.0 | 0.0 | 0.00 | 0.18 | 0.01 | 97 | 1015.3 |
| 20260902105029 | 74 | 0 | 0.0 | 0.0 | 0.00 | 0.18 | 0.01 | 97 | 1015.2 |
| 20260902104545 | 74 | 0 | 0.0 | 0.0 | 0.00 | 0.18 | 0.01 | 97 | 1015.2 |
| 20260902104026 | 74 | 0 | 0.0 | 0.0 | 0.00 | 0.18 | 0.01 | 97 | 1015.2 |
| 20260902103524 | 74 | 0 | 0.0 | 0.0 | 0.00 | 0.18 | 0.01 | 97 | 1015.2 |
| 20260902103050 | 74 | 0 | 0.0 | 0.0 | 0.00 | 0.18 | 0.01 | 97 | 1015.1 |
| 20260902102525 | 74 | 0 | 0.0 | 0.0 | 0.00 | 0.18 | 0.01 | 97 | 1015.0 |
| 20260902102023 | 74 | 0 | 0.0 | 0.0 | 0.00 | 0.18 | 0.01 | 97 | 1015.0 |
| 20260902101547 | 74 | 0 | 0.0 | 0.0 | 0.00 | 0.18 | 0.01 | 97 | 1015.1 |
| 20260902101025 | 74 | 0 | 0.0 | 0.0 | 0.00 | 0.18 | 0.01 | 97 | 1015.0 |
| 20260902100525 | 74 | 0 | 0.0 | 0.0 | 0.00 | 0.18 | 0.01 | 97 | 1014.9 |
| 20260902100050 | 74 | 0 | 0.0 | 0.0 | 0.00 | 0.18 | 0.01 | 97 | 1014.9 |
| 20260902095521 | 74 | 0 | 0.0 | 0.0 | 0.00 | 0.18 | 0.01 | 97 | 1014.9 |
| 20260902095023 | 74 | 0 | 0.0 | 0.0 | 0.00 | 0.18 | 0.01 | 97 | 1014.9 |
| 20260902094543 | 74 | 0 | 0.0 | 0.0 | 0.00 | 0.18 | 0.01 | 97 | 1014.9 |
| 20260902094026 | 74 | 0 | 0.0 | 0.0 | 0.00 | 0.18 | 0.01 | 97 | 1014.9 |
| 20260902093523 | 74 | 0 | 0.0 | 0.0 | 0.00 | 0.18 | 0.01 | 97 | 1014.8 |
| 20260902093043 | 74 | 0 | 0.0 | 0.0 | 0.00 | 0.18 | 0.01 | 97 | 1014.6 |
| 20260902092524 | 74 | 0 | 0.0 | 0.0 | 0.00 | 0.18 | 0.01 | 97 | 1014.6 |
| 20260902092024 | 74 | 0 | 0.0 | 0.0 | 0.00 | 0.18 | 0.01 | 97 | 1014.6 |
| 20260902091540 | 74 | 0 | 0.0 | 0.0 | 0.00 | 0.18 | 0.01 | 97 | 1014.6 |
| 20260902091025 | 74 | 0 | 0.0 | 0.0 | 0.00 | 0.18 | 0.01 | 97 | 1014.6 |
| 20260902090524 | 74 | 0 | 0.0 | 0.0 | 0.00 | 0.18 | 0.01 | 97 | 1014.4 |
| 20260902090044 | 74 | 0 | 0.0 | 0.0 | 0.00 | 0.18 | 0.01 | 97 | 1014.4 |
| 20260902085522 | 74 | 0 | 0.0 | 0.0 | 0.00 | 0.18 | 0.01 | 97 | 1014.4 |
| 20260902085023 | 74 | 0 | 0.0 | 0.0 | 0.00 | 0.18 | 0.01 | 97 | 1014.4 |
| 20260902084542 | 74 | 0 | 0.0 | 0.0 | 0.00 | 0.18 | 0.01 | 97 | 1014.4 |
| 20260902084023 | 74 | 0 | 0.0 | 0.0 | 0.00 | 0.18 | 0.01 | 97 | 1014.3 |
| 20260902083524 | 74 | 0 | 0.0 | 0.0 | 0.00 | 0.18 | 0.01 | 97 | 1014.5 |
| 20260902083047 | 75 | 0 | 0.0 | 0.0 | 0.00 | 0.18 | 0.01 | 97 | 1014.5 |
| 20260902082527 | 74 | 0 | 0.0 | 0.0 | 0.00 | 0.18 | 0.01 | 97 | 1014.5 |
| 20260902082024 | 74 | 0 | 0.0 | 0.0 | 0.00 | 0.18 | 0.01 | 97 | 1014.5 |
| 20260902081550 | 74 | 0 | 0.0 | 0.0 | 0.00 | 0.18 | 0.01 | 97 | 1014.6 |
| 20260902081024 | 74 | 0 | 0.0 | 0.0 | 0.00 | 0.18 | 0.01 | 97 | 1014.6 |
| 20260902080524 | 74 | 0 | 0.0 | 0.0 | 0.01 | 0.18 | 0.01 | 97 | 1014.6 |
| 20260902080050 | 74 | 0 | 0.0 | 0.0 | 0.01 | 0.18 | 0.01 | 97 | 1014.6 |
| 20260902075527 | 74 | 0 | 0.0 | 0.0 | 0.01 | 0.18 | 0.01 | 97 | 1014.6 |
| 20260902075023 | 74 | 0 | 0.0 | 0.0 | 0.01 | 0.18 | 0.01 | 97 | 1014.5 |
| 20260902074554 | 74 | 0 | 0.0 | 0.0 | 0.01 | 0.18 | 0.01 | 97 | 1014.5 |
| 20260902074026 | 74 | 0 | 0.0 | 0.0 | 0.01 | 0.18 | 0.01 | 97 | 1014.5 |
| 20260902073526 | 74 | 0 | 0.0 | 0.0 | 0.01 | 0.18 | 0.01 | 97 | 1014.5 |
| 20260902073052 | 75 | 0 | 0.0 | 0.0 | 0.01 | 0.18 | 0.01 | 97 | 1014.6 |
| 20260902072526 | 75 | 0 | 0.0 | 0.0 | 0.01 | 0.18 | 0.01 | 97 | 1014.6 |
| 20260902072026 | 75 | 0 | 0.0 | 0.0 | 0.01 | 0.18 | 0.01 | 97 | 1014.5 |
| 20260902071544 | 75 | 0 | 0.0 | 0.0 | 0.01 | 0.18 | 0.01 | 97 | 1014.5 |
| 20260902071028 | 75 | 0 | 0.0 | 0.0 | 0.01 | 0.18 | 0.01 | 97 | 1014.7 |
| 20260902070523 | 75 | 0 | 0.0 | 0.0 | 0.00 | 0.17 | 0.00 | 97 | 1014.7 |
| 20260902070042 | 75 | 0 | 0.0 | 0.0 | 0.00 | 0.17 | 0.00 | 97 | 1014.6 |
| 20260902065519 | 75 | 0 | 0.0 | 0.0 | 0.00 | 0.17 | 0.00 | 97 | 1014.7 |
| 20260902065025 | 75 | 0 | 0.0 | 0.0 | 0.00 | 0.17 | 0.00 | 97 | 1014.9 |
| 20260902064541 | 75 | 0 | 0.0 | 0.0 | 0.00 | 0.17 | 0.00 | 97 | 1015.0 |
| 20260902064024 | 75 | 0 | 0.0 | 0.0 | 0.00 | 0.17 | 0.00 | 97 | 1014.9 |
| 20260902063527 | 75 | 0 | 0.0 | 0.0 | 0.00 | 0.17 | 0.00 | 97 | 1015.0 |
| 20260902063050 | 75 | 0 | 0.0 | 0.0 | 0.00 | 0.17 | 0.00 | 97 | 1015.1 |
| 20260902062524 | 75 | 0 | 0.0 | 0.0 | 0.00 | 0.17 | 0.00 | 97 | 1015.1 |
| 20260902062023 | 75 | 0 | 0.0 | 0.0 | 0.00 | 0.17 | 0.00 | 97 | 1015.1 |
| 20260902061543 | 75 | 0 | 0.0 | 0.0 | 0.00 | 0.17 | 0.00 | 97 | 1015.0 |
| 20260902061030 | 75 | 0 | 0.0 | 0.0 | 0.00 | 0.17 | 0.00 | 97 | 1015.0 |
| 20260902060519 | 75 | 0 | 0.0 | 0.0 | 0.00 | 0.17 | 0.00 | 97 | 1015.0 |
| 20260902060110 | 75 | 0 | 0.0 | 0.0 | 0.00 | 0.17 | 0.00 | 97 | 1015.1 |
| 20260902055520 | 75 | 0 | 0.0 | 0.0 | 0.00 | 0.17 | 0.00 | 97 | 1015.2 |
| 20260902055026 | 75 | 0 | 0.0 | 0.0 | 0.00 | 0.17 | 0.00 | 97 | 1015.2 |
| 20260902054541 | 75 | 0 | 0.0 | 0.0 | 0.00 | 0.17 | 0.00 | 97 | 1015.4 |
| 20260902054024 | 75 | 0 | 0.0 | 0.0 | 0.00 | 0.17 | 0.00 | 97 | 1015.3 |
| 20260902053520 | 75 | 0 | 0.0 | 0.0 | 0.00 | 0.17 | 0.00 | 97 | 1015.3 |
| 20260902053042 | 76 | 0 | 0.0 | 0.0 | 0.00 | 0.17 | 0.00 | 97 | 1015.3 |
| 20260902052523 | 76 | 0 | 0.0 | 0.0 | 0.00 | 0.17 | 0.00 | 97 | 1015.3 |
| 20260902052018 | 76 | 0 | 0.0 | 0.0 | 0.00 | 0.17 | 0.00 | 97 | 1015.2 |
| 20260902051540 | 76 | 0 | 0.0 | 0.0 | 0.00 | 0.17 | 0.00 | 97 | 1015.3 |
| 20260902051020 | 76 | 0 | 0.0 | 0.0 | 0.00 | 0.17 | 0.00 | 97 | 1015.4 |
| 20260902050521 | 76 | 0 | 0.0 | 0.0 | 0.00 | 0.17 | 0.00 | 96 | 1015.2 |
| 20260902050041 | 76 | 0 | 0.0 | 0.0 | 0.00 | 0.17 | 0.00 | 97 | 1015.3 |
| 20260902045523 | 76 | 0 | 0.0 | 0.0 | 0.00 | 0.17 | 0.00 | 97 | 1015.3 |
| 20260902045024 | 76 | 0 | 0.0 | 0.0 | 0.00 | 0.17 | 0.00 | 96 | 1015.3 |
| 20260902044543 | 76 | 0 | 0.0 | 0.0 | 0.00 | 0.17 | 0.00 | 96 | 1015.3 |
| 20260902044023 | 76 | 0 | 0.0 | 0.0 | 0.00 | 0.17 | 0.00 | 96 | 1015.3 |
| 20260902043523 | 76 | 0 | 0.0 | 0.0 | 0.00 | 0.17 | 0.00 | 96 | 1015.3 |
| 20260902043048 | 76 | 0 | 0.0 | 0.0 | 0.00 | 0.17 | 0.00 | 96 | 1015.2 |
| 20260902042522 | 76 | 0 | 0.0 | 0.0 | 0.00 | 0.17 | 0.00 | 97 | 1015.4 |
| 20260902042019 | 76 | 0 | 0.0 | 0.0 | 0.00 | 0.17 | 0.00 | 97 | 1015.4 |
| 20260902041549 | 76 | 0 | 0.0 | 0.0 | 0.00 | 0.17 | 0.00 | 96 | 1015.4 |
| 20260902041020 | 76 | 0 | 0.0 | 0.0 | 0.00 | 0.17 | 0.00 | 96 | 1015.5 |
| 20260902040521 | 76 | 0 | 0.0 | 0.0 | 0.00 | 0.17 | 0.00 | 96 | 1015.5 |
| 20260902040041 | 77 | 0 | 0.0 | 0.0 | 0.00 | 0.17 | 0.00 | 96 | 1015.6 |
| 20260902035521 | 76 | 0 | 0.0 | 0.0 | 0.00 | 0.17 | 0.17 | 96 | 1015.7 |
| 20260902035023 | 77 | 0 | 0.0 | 0.0 | 0.00 | 0.17 | 0.17 | 96 | 1015.7 |
| 20260902034544 | 77 | 0 | 0.0 | 0.0 | 0.00 | 0.17 | 0.17 | 96 | 1015.7 |
| 20260902034023 | 77 | 0 | 0.0 | 0.0 | 0.00 | 0.17 | 0.17 | 96 | 1015.8 |
| 20260902033519 | 77 | 0 | 0.0 | 0.0 | 0.00 | 0.17 | 0.17 | 96 | 1015.9 |
| 20260902033049 | 77 | 0 | 0.0 | 0.0 | 0.00 | 0.17 | 0.17 | 96 | 1015.9 |
| 20260902032520 | 77 | 0 | 0.0 | 0.0 | 0.00 | 0.17 | 0.17 | 96 | 1015.9 |
| 20260902032024 | 77 | 0 | 0.0 | 0.0 | 0.00 | 0.17 | 0.17 | 96 | 1015.9 |
| 20260902031541 | 77 | 0 | 0.0 | 0.0 | 0.00 | 0.17 | 0.17 | 96 | 1015.9 |
| 20260902031020 | 77 | 0 | 0.0 | 0.0 | 0.00 | 0.17 | 0.17 | 96 | 1016.0 |
| 20260902030521 | 77 | 0 | 0.0 | 0.0 | 0.00 | 0.17 | 0.17 | 96 | 1015.9 |
| 20260902030048 | 77 | 0 | 0.0 | 0.0 | 0.00 | 0.17 | 0.17 | 96 | 1016.0 |
| 20260902025524 | 77 | 0 | 0.0 | 0.0 | 0.00 | 0.17 | 0.17 | 96 | 1016.0 |
| 20260902025025 | 77 | 0 | 0.0 | 2.0 | 0.00 | 0.17 | 0.17 | 96 | 1016.0 |
| 20260902024541 | 77 | 0 | 0.0 | 2.0 | 0.00 | 0.17 | 0.17 | 96 | 1016.0 |
| 20260902024018 | 77 | 55 | 0.0 | 2.0 | 0.00 | 0.17 | 0.17 | 96 | 1016.0 |
| 20260902023518 | 77 | 55 | 0.0 | 2.0 | 0.00 | 0.17 | 0.17 | 96 | 1016.0 |
| 20260902023044 | 77 | 0 | 0.0 | 0.0 | 0.00 | 0.17 | 0.17 | 96 | 1016.0 |
| 20260902022521 | 77 | 0 | 0.0 | 1.0 | 0.00 | 0.17 | 0.17 | 96 | 1016.0 |
| 20260902022022 | 77 | 0 | 0.0 | 1.0 | 0.00 | 0.17 | 0.17 | 96 | 1016.0 |
| 20260902021546 | 77 | 0 | 0.0 | 1.0 | 0.00 | 0.17 | 0.17 | 96 | 1016.0 |
| 20260902021022 | 77 | 0 | 0.0 | 0.0 | 0.00 | 0.17 | 0.17 | 96 | 1015.9 |
| 20260902020520 | 77 | 0 | 0.0 | 0.0 | 0.00 | 0.17 | 0.17 | 96 | 1015.8 |
| 20260902020041 | 77 | 0 | 0.0 | 0.0 | 0.00 | 0.17 | 0.17 | 96 | 1015.8 |